ARIANE 2 DEB, 27033

Orbit data source: Space-Track

ARIANE 2 DEB, 27033 is space debris in HEO originally from a launch on Fri, 27 Jan 1989 UTC launched from the French Guiana (FRGUI). Debris objects in space refer to the collection of defunct objects orbiting the Earth. Examples of debris include non-operational satellites, rocket bodies, and fragments generated from explosions, collisions, or faulty payload assembly.

Loading next visibility...
Identifier
27033, 1989-006N
Orbit
HEO
Country
Flag of FRFR
Related business
Manufacturer
EADS/LV
Mission
Spacecraft
Bus & Motor
Unknown
Mass
Unknown
Launch date (UTC)
1989-01-27 (37 years ago)
Launch vehicle
Unknown
Launch site
French Guiana (FRGUI)
Object type
Payload
Rocket body
Debris
Shape & HBR
Unknown shape, 0.5 m
Radar Cross Section
Medium (>0.1 m² and <1 m²)

Expand to show TLE details & history
Last TLE update: 3 days ago

TLE from 3 days ago
0 ARIANE 2 DEB
1 27033U 89006N   26170.92024348  .00000161  00000-0  27013-2 0  9999
2 27033   8.6088  12.2569 7102810 199.8270 117.8535  2.34777872210085
Epoch: 2026-06-19T22:05Z
TLE epoch observation values (Epoch: 2026-06-19T22:05:09.036Z)
Latitude
0.58779°
Longitude
136.73965°
Altitude
30,994.298 km
Speed
2.159 km/s
True Right ascension
01h 04m 40s
True Declination
0° 35' 14"
Sunlit
Object was in daylight at epoch
Visualization orbit readout
Latitude
Unknown
Longitude
Unknown
Altitude
Unknown
Speed
Unknown
Apparent Right ascension
Unknown
Apparent Declination
Unknown
Sunlit
N/A
Visualization observer readout
Local Sidereal Time
07:10:04
Azimuth
Unknown
Elevation
Unknown
Doppler factor
Unknown
Orbital elements
Apogee altitude
34,528.221 km
Perigee altitude
551.338 km
Semi-major axis
23,917.917 km
Eccentricity
0.71028
Inclination
8.6088°
RAAN
12.2569°
Arg. of periapsis
199.827°
True anomaly
164.12983°
Mean anomaly
117.8535°
Eccentric anomaly
142.58167°
Mean motion
0.58676 °/min
Orbital period
613.54 mins
BSTAR
0.0027013
Loading maneuver chart data...
Computing Atmospheric mass density...
Loading historical data...
Loading historical data...
Loading historical data...
Loading historical data...
Loading historical data...
Loading historical data...
Loading historical data...

Documentation

Showing up to 5 results
|